Regional Weather Roundup
Issued by NWS

Home | Current Version | Previous Version | Text Only | Print | Product List | Glossary On
Versions: 1 2 3 4 5 6 7 8 9 10 11 12 13 14 15 16 17 18 19 20 21 22 23 24 25 26 27 28 29 30 31 32 33 34 35 36 37 38 39 40 41 42 43 44 45 46 47 48 49 50
000
ASUS44 KJAN 021510
RWRMS

MISSISSIPPI HOURLY WEATHER ROUNDUP
NATIONAL WEATHER SERVICE JACKSON MS
1000 AM CDT THU OCT 02 2014

NOTE: "FAIR: INDICATES FEW OR NO CLOUDS BELOW 12,000 FEET WITH NO
SIGNIFICANT WEATHER AND/OR OBSTRUCTIONS TO VISIBILITY.

MSZ001>002-007>008-010>013-018>021-025>028-034>036-021600-
NORTHWEST MISSISSIPPI

CITY           SKY/WX    TMP DP  RH WIND       PRES   REMARKS
CLARKSDALE     FAIR      81  73  78 S12       29.95F
CLEVELAND      CLOUDY    82  75  80 S13       29.94F
GREENWOOD      FAIR      83  73  72 S12       29.97S
GREENVILLE     PTSUNNY   83  73  72 SW12      29.95S
GRENADA        FAIR      79  72  78 SW7       29.98S
OLIVE BRANCH   CLOUDY    75  75 100 S9        29.97S
OXFORD         CLOUDY    73  72  94 S6        30.00F
TUNICA         CLOUDY    79  72  78 S10       29.95F
$$

MSZ003>006-009-014>017-022>024-029>033-037>039-021600-
NORTHEAST MISSISSIPPI

CITY           SKY/WX    TMP DP  RH WIND       PRES   REMARKS
COLUMBUS AFB   PTSUNNY   76  70  81 SE7       30.02S
CORINTH        PTSUNNY   77  66  69 S6        30.01R
GOLDN TRIANGLE PTSUNNY   77  68  73 S8        30.01S
STARKVILLE     CLOUDY    73  70  88 S8        30.02R
TUPELO         CLOUDY    73  68  84 S8        30.00F
$$

MSZ040-058-021600-
CENTRAL MISSISSIPPI

CITY           SKY/WX    TMP DP  RH WIND       PRES   REMARKS
JACKSON INTL   CLOUDY    78  76  93 S7        29.99S
JACKSON HAWKNS CLOUDY    79  74  84 S10       29.99S
MERIDIAN KEY   PTSUNNY   78  72  81 S9        30.02R
MERIDIAN NAS   CLOUDY    79  72  79 SE5       30.03R
RAYMOND        PTSUNNY   79  73  83 S9        29.99S
VICKSBURG      CLOUDY    81  74  79 S9        29.97S
$$

MSZ059>079-021600-
SOUTH MISSISSIPPI

CITY           SKY/WX    TMP DP  RH WIND       PRES   REMARKS
BROOKHAVEN     PTSUNNY   82  75  78 SE10G16   30.02R
COLUMBIA       PTSUNNY   81  75  83 S13       30.00S
HATTIESBURG    CLOUDY    83  75  77 S9        30.02S HX  90
MCCOMB         PTSUNNY   82  74  76 S12       30.01R
NATCHEZ        PTSUNNY   81  75  83 S12       29.98S
PINE BELT      PTSUNNY   81  73  78 S9        30.03S
$$

MSZ080>082-021600-
COASTAL MISSISSIPPI

CITY           SKY/WX    TMP DP  RH WIND       PRES   REMARKS
BAY ST LOUIS   PTSUNNY   86  73  66 S12G17    30.01S HX  93
BILOXI         FAIR      85  78  79 S9        30.02S HX  95
PASCAGOULA     FAIR     N/A N/A N/A S9        30.02S
GULFPORT       PTSUNNY   84  76  76 SE9G17    30.01R HX  93
$$


USA.gov is the U.S. government's official web portal to all federal, state and local government web resources and services.